| time (UTC) | temp F | wind direction | speed MPH | gust MPH | rain 1hr in | rain 24hr in | rain mn in | humidity % | barometer mb |
| 20260508033458 | 63 | 171 | 4.0 | 9.0 | 0.00 | 0.00 | 0.00 | 35 | 1011.8 |
| 20260508032955 | 63 | 168 | 3.0 | 8.0 | 0.00 | 0.00 | 0.00 | 35 | 1011.7 |
| 20260508032453 | 63 | 183 | 3.0 | 7.0 | 0.00 | 0.00 | 0.00 | 35 | 1011.7 |
| 20260508031949 | 63 | 167 | 5.0 | 7.0 | 0.00 | 0.00 | 0.00 | 34 | 1011.7 |
| 20260508031447 | 64 | 200 | 3.0 | 8.0 | 0.00 | 0.00 | 0.00 | 33 | 1011.8 |
| 20260508030942 | 64 | 150 | 3.0 | 7.0 | 0.00 | 0.00 | 0.00 | 32 | 1011.6 |
| 20260508030440 | 64 | 182 | 4.0 | 7.0 | 0.00 | 0.00 | 0.00 | 32 | 1011.5 |
| 20260508025937 | 64 | 177 | 3.0 | 8.0 | 0.00 | 0.00 | 0.00 | 31 | 1011.3 |
| 20260508025433 | 65 | 157 | 2.0 | 9.0 | 0.00 | 0.00 | 0.00 | 30 | 1011.1 |
| 20260508024931 | 65 | 177 | 2.0 | 8.0 | 0.00 | 0.00 | 0.00 | 30 | 1011.2 |
| 20260508024427 | 65 | 151 | 4.0 | 8.0 | 0.00 | 0.00 | 0.00 | 29 | 1011.1 |
| 20260508023923 | 66 | 180 | 5.0 | 7.0 | 0.00 | 0.00 | 0.00 | 29 | 1011.0 |
| 20260508023420 | 66 | 211 | 3.0 | 8.0 | 0.00 | 0.00 | 0.00 | 28 | 1011.1 |
| 20260508022917 | 66 | 168 | 6.0 | 13.0 | 0.00 | 0.00 | 0.00 | 28 | 1011.1 |
| 20260508022413 | 66 | 140 | 3.0 | 7.0 | 0.00 | 0.00 | 0.00 | 28 | 1010.8 |
| 20260508021910 | 66 | 175 | 4.0 | 7.0 | 0.00 | 0.00 | 0.00 | 28 | 1011.0 |
| 20260508021406 | 67 | 167 | 3.0 | 7.0 | 0.00 | 0.00 | 0.00 | 27 | 1010.9 |
| 20260508020902 | 68 | 184 | 3.0 | 7.0 | 0.00 | 0.00 | 0.00 | 27 | 1010.8 |
| 20260508020400 | 68 | 161 | 2.0 | 7.0 | 0.00 | 0.00 | 0.00 | 27 | 1010.9 |
| 20260508015857 | 68 | 181 | 3.0 | 6.0 | 0.00 | 0.00 | 0.00 | 27 | 1010.7 |
| 20260508015355 | 68 | 184 | 2.0 | 5.0 | 0.00 | 0.00 | 0.00 | 26 | 1010.8 |
| 20260508014851 | 69 | 221 | 3.0 | 5.0 | 0.00 | 0.00 | 0.00 | 26 | 1010.7 |
| 20260508014349 | 70 | 197 | 5.0 | 7.0 | 0.00 | 0.00 | 0.00 | 25 | 1010.6 |
| 20260508013843 | 71 | 202 | 5.0 | 7.0 | 0.00 | 0.00 | 0.00 | 25 | 1010.5 |
| 20260508013340 | 71 | 202 | 9.0 | 9.0 | 0.00 | 0.00 | 0.00 | 25 | 1010.7 |
| 20260508012837 | 72 | 219 | 6.0 | 10.0 | 0.00 | 0.00 | 0.00 | 24 | 1010.7 |
| 20260508012335 | 72 | 224 | 8.0 | 10.0 | 0.00 | 0.00 | 0.00 | 24 | 1010.7 |
| 20260508011832 | 73 | 228 | 5.0 | 11.0 | 0.00 | 0.00 | 0.00 | 24 | 1010.8 |
| 20260508011330 | 73 | 210 | 6.0 | 11.0 | 0.00 | 0.00 | 0.00 | 23 | 1010.6 |
| 20260508010821 | 74 | 223 | 8.0 | 17.0 | 0.00 | 0.00 | 0.00 | 23 | 1010.8 |
| 20260508010319 | 74 | 226 | 17.0 | 20.0 | 0.00 | 0.00 | 0.00 | 23 | 1010.5 |
| 20260508005816 | 74 | 227 | 10.0 | 21.0 | 0.00 | 0.00 | 0.00 | 23 | 1010.6 |
| 20260508005313 | 74 | 222 | 10.0 | 16.0 | 0.00 | 0.00 | 0.00 | 23 | 1010.5 |
| 20260508004809 | 74 | 202 | 9.0 | 17.0 | 0.00 | 0.00 | 0.00 | 23 | 1010.6 |
| 20260508004305 | 75 | 202 | 10.0 | 22.0 | 0.00 | 0.00 | 0.00 | 23 | 1010.6 |
| 20260508003801 | 75 | 212 | 19.0 | 19.0 | 0.00 | 0.00 | 0.00 | 22 | 1010.5 |
| 20260508003259 | 75 | 210 | 10.0 | 17.0 | 0.00 | 0.00 | 0.00 | 22 | 1010.2 |
| 20260508002755 | 75 | 223 | 9.0 | 22.0 | 0.00 | 0.00 | 0.00 | 22 | 1010.6 |
| 20260508002253 | 75 | 226 | 9.0 | 20.0 | 0.00 | 0.00 | 0.00 | 22 | 1010.1 |
| 20260508001748 | 75 | 219 | 9.0 | 16.0 | 0.00 | 0.00 | 0.00 | 22 | 1010.6 |
| 20260508001244 | 75 | 235 | 7.0 | 14.0 | 0.00 | 0.00 | 0.00 | 23 | 1010.3 |
| 20260508000740 | 75 | 236 | 12.0 | 17.0 | 0.00 | 0.00 | 0.00 | 22 | 1010.5 |
| 20260508000238 | 75 | 231 | 9.0 | 20.0 | 0.00 | 0.00 | 0.00 | 21 | 1010.8 |
| 20260507235734 | 75 | 236 | 10.0 | 14.0 | 0.00 | 0.00 | 0.00 | 23 | 1010.5 |
| 20260507235232 | 75 | 228 | 9.0 | 14.0 | 0.00 | 0.00 | 0.00 | 22 | 1010.5 |
| 20260507234728 | 75 | 243 | 13.0 | 18.0 | 0.00 | 0.00 | 0.00 | 22 | 1010.6 |
| 20260507234225 | 76 | 252 | 12.0 | 20.0 | 0.00 | 0.00 | 0.00 | 23 | 1010.2 |
| 20260507233721 | 75 | 239 | 7.0 | 14.0 | 0.00 | 0.00 | 0.00 | 23 | 1010.6 |
| 20260507233220 | 75 | 256 | 9.0 | 20.0 | 0.00 | 0.00 | 0.00 | 24 | 1010.5 |
| 20260507232716 | 75 | 262 | 13.0 | 21.0 | 0.00 | 0.00 | 0.00 | 24 | 1010.7 |
| 20260507232214 | 75 | 224 | 9.0 | 11.0 | 0.00 | 0.00 | 0.00 | 22 | 1010.7 |
| 20260507231710 | 75 | 255 | 5.0 | 10.0 | 0.00 | 0.00 | 0.00 | 23 | 1010.8 |
| 20260507231207 | 75 | 255 | 13.0 | 21.0 | 0.00 | 0.00 | 0.00 | 23 | 1010.8 |
| 20260507230704 | 75 | 232 | 12.0 | 20.0 | 0.00 | 0.00 | 0.00 | 23 | 1010.9 |
| 20260507230201 | 75 | 227 | 10.0 | 11.0 | 0.00 | 0.00 | 0.00 | 23 | 1010.9 |
| 20260507225700 | 75 | 274 | 4.0 | 17.0 | 0.00 | 0.00 | 0.00 | 25 | 1011.0 |
| 20260507225157 | 75 | 243 | 12.0 | 20.0 | 0.00 | 0.00 | 0.00 | 24 | 1010.9 |
| 20260507224653 | 76 | 240 | 7.0 | 12.0 | 0.00 | 0.00 | 0.00 | 23 | 1011.1 |
| 20260507224150 | 75 | 248 | 7.0 | 14.0 | 0.00 | 0.00 | 0.00 | 24 | 1011.3 |
| 20260507223646 | 75 | 242 | 7.0 | 19.0 | 0.00 | 0.00 | 0.00 | 24 | 1011.2 |
| 20260507223143 | 75 | 228 | 11.0 | 16.0 | 0.00 | 0.00 | 0.00 | 22 | 1011.5 |
| 20260507222640 | 75 | 229 | 18.0 | 28.0 | 0.00 | 0.00 | 0.00 | 22 | 1011.2 |
| 20260507222136 | 74 | 227 | 12.0 | 13.0 | 0.00 | 0.00 | 0.00 | 22 | 1011.1 |
| 20260507221632 | 74 | 267 | 15.0 | 15.0 | 0.00 | 0.00 | 0.00 | 24 | 1011.5 |
| 20260507221129 | 74 | 253 | 11.0 | 16.0 | 0.00 | 0.00 | 0.00 | 24 | 1011.3 |
| 20260507220626 | 73 | 242 | 12.0 | 24.0 | 0.00 | 0.00 | 0.00 | 24 | 1011.7 |
| 20260507220124 | 73 | 228 | 5.0 | 17.0 | 0.00 | 0.00 | 0.00 | 23 | 1011.3 |
| 20260507215620 | 74 | 240 | 10.0 | 22.0 | 0.00 | 0.00 | 0.00 | 24 | 1011.8 |
| 20260507215118 | 75 | 207 | 5.0 | 17.0 | 0.00 | 0.00 | 0.00 | 24 | 1011.6 |
| 20260507214615 | 74 | 231 | 7.0 | 17.0 | 0.00 | 0.00 | 0.00 | 23 | 1011.8 |
| 20260507214111 | 73 | 204 | 8.0 | 18.0 | 0.00 | 0.00 | 0.00 | 24 | 1012.1 |
| 20260507213607 | 75 | 231 | 6.0 | 18.0 | 0.00 | 0.00 | 0.00 | 24 | 1012.1 |
| 20260507213105 | 73 | 252 | 6.0 | 15.0 | 0.00 | 0.00 | 0.00 | 28 | 1012.2 |
| 20260507212600 | 73 | 209 | 7.0 | 16.0 | 0.00 | 0.00 | 0.00 | 25 | 1012.1 |
| 20260507212057 | 73 | 239 | 8.0 | 16.0 | 0.00 | 0.00 | 0.00 | 24 | 1012.3 |
| 20260507211554 | 72 | 245 | 11.0 | 18.0 | 0.00 | 0.00 | 0.00 | 28 | 1012.2 |
| 20260507211050 | 73 | 228 | 17.0 | 24.0 | 0.00 | 0.00 | 0.00 | 26 | 1012.2 |
| 20260507210548 | 72 | 225 | 15.0 | 28.0 | 0.00 | 0.00 | 0.00 | 26 | 1012.6 |
| 20260507210044 | 73 | 218 | 13.0 | 24.0 | 0.00 | 0.00 | 0.00 | 25 | 1012.5 |
| 20260507205541 | 73 | 228 | 19.0 | 19.0 | 0.00 | 0.00 | 0.00 | 27 | 1012.7 |
| 20260507205037 | 72 | 190 | 7.0 | 19.0 | 0.00 | 0.00 | 0.00 | 27 | 1013.0 |
| 20260507204533 | 71 | 242 | 4.0 | 21.0 | 0.00 | 0.00 | 0.00 | 28 | 1012.9 |
| 20260507204031 | 72 | 223 | 18.0 | 26.0 | 0.00 | 0.00 | 0.00 | 27 | 1012.9 |
| 20260507203529 | 72 | 250 | 7.0 | 16.0 | 0.00 | 0.00 | 0.00 | 28 | 1013.0 |
| 20260507203026 | 70 | 223 | 12.0 | 17.0 | 0.00 | 0.00 | 0.00 | 28 | 1013.1 |
| 20260507202522 | 72 | 228 | 14.0 | 21.0 | 0.00 | 0.00 | 0.00 | 28 | 1013.3 |
| 20260507202018 | 72 | 240 | 13.0 | 17.0 | 0.00 | 0.00 | 0.00 | 29 | 1013.3 |
| 20260507201514 | 71 | 230 | 14.0 | 15.0 | 0.00 | 0.00 | 0.00 | 26 | 1013.7 |
| 20260507201010 | 71 | 228 | 13.0 | 25.0 | 0.00 | 0.00 | 0.00 | 28 | 1013.5 |
| 20260507200506 | 70 | 296 | 6.0 | 18.0 | 0.00 | 0.00 | 0.00 | 29 | 1013.9 |
| 20260507200002 | 70 | 255 | 15.0 | 24.0 | 0.00 | 0.00 | 0.00 | 32 | 1013.8 |
| 20260507195459 | 71 | 236 | 11.0 | 23.0 | 0.00 | 0.00 | 0.00 | 31 | 1014.0 |
| 20260507194956 | 70 | 237 | 10.0 | 20.0 | 0.00 | 0.00 | 0.00 | 32 | 1014.1 |
| 20260507194453 | 70 | 226 | 16.0 | 16.0 | 0.00 | 0.00 | 0.00 | 31 | 1014.0 |
| 20260507193949 | 70 | 219 | 13.0 | 19.0 | 0.00 | 0.00 | 0.00 | 31 | 1014.3 |
| 20260507193446 | 70 | 278 | 11.0 | 16.0 | 0.00 | 0.00 | 0.00 | 33 | 1014.1 |
| 20260507192943 | 68 | 218 | 11.0 | 18.0 | 0.00 | 0.00 | 0.00 | 35 | 1014.3 |
| 20260507192439 | 68 | 225 | 10.0 | 10.0 | 0.00 | 0.00 | 0.00 | 35 | 1014.7 |
| 20260507191936 | 70 | 261 | 7.0 | 23.0 | 0.00 | 0.00 | 0.00 | 36 | 1014.6 |
| 20260507191432 | 69 | 228 | 18.0 | 26.0 | 0.00 | 0.00 | 0.00 | 34 | 1014.8 |
| 20260507190929 | 67 | 292 | 4.0 | 20.0 | 0.00 | 0.00 | 0.00 | 38 | 1014.7 |
| 20260507190426 | 68 | 253 | 19.0 | 23.0 | 0.00 | 0.00 | 0.00 | 38 | 1014.8 |
| 20260507185925 | 67 | 257 | 4.0 | 14.0 | 0.00 | 0.00 | 0.00 | 40 | 1014.9 |
| 20260507185422 | 66 | 213 | 6.0 | 21.0 | 0.00 | 0.00 | 0.00 | 39 | 1015.4 |
| 20260507184919 | 68 | 273 | 9.0 | 19.0 | 0.00 | 0.00 | 0.00 | 40 | 1015.2 |
| 20260507184417 | 66 | 232 | 8.0 | 21.0 | 0.00 | 0.00 | 0.00 | 40 | 1015.0 |
| 20260507183914 | 66 | 309 | 8.0 | 13.0 | 0.00 | 0.00 | 0.00 | 43 | 1015.4 |
| 20260507183411 | 67 | 252 | 9.0 | 19.0 | 0.00 | 0.00 | 0.00 | 44 | 1015.7 |
| 20260507182908 | 65 | 264 | 7.0 | 18.0 | 0.00 | 0.00 | 0.00 | 45 | 1015.7 |
| 20260507182403 | 65 | 248 | 12.0 | 19.0 | 0.00 | 0.00 | 0.00 | 44 | 1015.9 |
| 20260507181900 | 65 | 235 | 11.0 | 24.0 | 0.00 | 0.00 | 0.00 | 44 | 1016.0 |
| 20260507181356 | 64 | 241 | 13.0 | 20.0 | 0.00 | 0.00 | 0.00 | 47 | 1015.9 |
| 20260507180853 | 65 | 259 | 9.0 | 25.0 | 0.00 | 0.00 | 0.00 | 46 | 1016.1 |
| 20260507180350 | 64 | 231 | 11.0 | 28.0 | 0.00 | 0.00 | 0.00 | 46 | 1016.1 |
| 20260507175846 | 64 | 238 | 13.0 | 25.0 | 0.00 | 0.00 | 0.00 | 47 | 1016.2 |
| 20260507175343 | 62 | 240 | 9.0 | 24.0 | 0.00 | 0.00 | 0.00 | 49 | 1016.5 |
| 20260507174841 | 64 | 220 | 9.0 | 18.0 | 0.00 | 0.00 | 0.00 | 47 | 1016.4 |
| 20260507174338 | 62 | 227 | 11.0 | 23.0 | 0.00 | 0.00 | 0.00 | 49 | 1016.5 |
| 20260507173835 | 62 | 229 | 19.0 | 22.0 | 0.00 | 0.00 | 0.00 | 49 | 1016.7 |
| 20260507173332 | 62 | 256 | 11.0 | 31.0 | 0.00 | 0.00 | 0.00 | 51 | 1016.7 |
| 20260507172828 | 62 | 246 | 17.0 | 22.0 | 0.00 | 0.00 | 0.00 | 50 | 1017.0 |
| 20260507172325 | 61 | 264 | 14.0 | 19.0 | 0.00 | 0.00 | 0.00 | 52 | 1017.1 |
| 20260507171821 | 60 | 233 | 14.0 | 22.0 | 0.00 | 0.00 | 0.00 | 51 | 1017.0 |
| 20260507171318 | 60 | 238 | 9.0 | 22.0 | 0.00 | 0.00 | 0.00 | 52 | 1017.1 |
| 20260507170815 | 60 | 235 | 15.0 | 26.0 | 0.00 | 0.00 | 0.00 | 52 | 1017.0 |
| 20260507170311 | 59 | 225 | 19.0 | 22.0 | 0.00 | 0.00 | 0.00 | 53 | 1017.0 |
| 20260507165807 | 59 | 233 | 19.0 | 26.0 | 0.00 | 0.00 | 0.00 | 54 | 1017.5 |
| 20260507165306 | 58 | 239 | 9.0 | 20.0 | 0.00 | 0.00 | 0.00 | 57 | 1017.5 |
| 20260507164800 | 59 | 251 | 7.0 | 30.0 | 0.00 | 0.00 | 0.00 | 54 | 1017.5 |
| 20260507164257 | 57 | 225 | 16.0 | 21.0 | 0.00 | 0.00 | 0.00 | 56 | 1017.6 |
| 20260507163754 | 57 | 225 | 13.0 | 23.0 | 0.00 | 0.00 | 0.00 | 58 | 1017.8 |
| 20260507163252 | 59 | 228 | 14.0 | 20.0 | 0.00 | 0.00 | 0.00 | 57 | 1017.7 |
| 20260507162747 | 56 | 218 | 12.0 | 29.0 | 0.00 | 0.00 | 0.00 | 59 | 1017.8 |
| 20260507162243 | 56 | 246 | 14.0 | 27.0 | 0.00 | 0.00 | 0.00 | 60 | 1017.8 |
| 20260507161741 | 57 | 218 | 13.0 | 23.0 | 0.00 | 0.00 | 0.00 | 58 | 1017.9 |
| 20260507161237 | 56 | 253 | 13.0 | 24.0 | 0.00 | 0.00 | 0.00 | 62 | 1017.9 |
| 20260507160733 | 56 | 234 | 18.0 | 21.0 | 0.00 | 0.00 | 0.00 | 61 | 1017.9 |
| 20260507160230 | 55 | 222 | 16.0 | 22.0 | 0.00 | 0.00 | 0.00 | 64 | 1017.9 |
| 20260507155726 | 54 | 219 | 12.0 | 21.0 | 0.00 | 0.00 | 0.00 | 67 | 1017.8 |
| 20260507155222 | 53 | 229 | 9.0 | 15.0 | 0.00 | 0.00 | 0.00 | 74 | 1017.8 |
| 20260507154719 | 52 | 249 | 11.0 | 14.0 | 0.00 | 0.00 | 0.00 | 77 | 1018.0 |
| 20260507154216 | 51 | 238 | 9.0 | 13.0 | 0.00 | 0.00 | 0.00 | 79 | 1018.0 |
| 20260507153712 | 51 | 252 | 9.0 | 12.0 | 0.00 | 0.00 | 0.00 | 80 | 1017.9 |
| 20260507153209 | 50 | 224 | 6.0 | 14.0 | 0.00 | 0.00 | 0.00 | 82 | 1018.0 |
| 20260507152706 | 49 | 245 | 7.0 | 15.0 | 0.00 | 0.00 | 0.00 | 86 | 1018.4 |
| 20260507152201 | 48 | 257 | 5.0 | 11.0 | 0.00 | 0.00 | 0.00 | 88 | 1018.4 |
| 20260507151658 | 47 | 247 | 12.0 | 15.0 | 0.00 | 0.00 | 0.00 | 90 | 1018.5 |
| 20260507151154 | 47 | 254 | 8.0 | 12.0 | 0.00 | 0.00 | 0.00 | 93 | 1018.4 |
| 20260507150652 | 46 | 295 | 5.0 | 11.0 | 0.00 | 0.00 | 0.00 | 94 | 1018.4 |
| 20260507150148 | 46 | 259 | 10.0 | 14.0 | 0.00 | 0.00 | 0.00 | 95 | 1018.6 |
| 20260507145643 | 45 | 273 | 4.0 | 13.0 | 0.00 | 0.00 | 0.00 | 96 | 1018.4 |
| 20260507145136 | 45 | 273 | 2.0 | 13.0 | 0.00 | 0.00 | 0.00 | 96 | 1018.5 |
| 20260507144632 | 44 | 274 | 5.0 | 11.0 | 0.00 | 0.00 | 0.00 | 97 | 1018.6 |
| 20260507144131 | 44 | 259 | 6.0 | 13.0 | 0.00 | 0.00 | 0.00 | 97 | 1018.8 |
| 20260507143627 | 43 | 241 | 8.0 | 13.0 | 0.00 | 0.00 | 0.00 | 97 | 1018.7 |
| 20260507143124 | 44 | 280 | 4.0 | 8.0 | 0.00 | 0.00 | 0.00 | 97 | 1018.7 |
| 20260507142619 | 43 | 302 | 4.0 | 11.0 | 0.00 | 0.00 | 0.00 | 97 | 1018.9 |
| 20260507142117 | 43 | 261 | 9.0 | 11.0 | 0.00 | 0.00 | 0.00 | 97 | 1018.7 |
| 20260507141613 | 43 | 263 | 4.0 | 7.0 | 0.00 | 0.00 | 0.00 | 97 | 1018.8 |
| 20260507141110 | 42 | 237 | 5.0 | 15.0 | 0.00 | 0.00 | 0.00 | 97 | 1019.0 |
| 20260507140606 | 42 | 268 | 7.0 | 10.0 | 0.00 | 0.00 | 0.00 | 97 | 1019.0 |
| 20260507140103 | 42 | 269 | 4.0 | 13.0 | 0.00 | 0.00 | 0.00 | 97 | 1019.0 |
| 20260507135600 | 42 | 287 | 3.0 | 8.0 | 0.00 | 0.00 | 0.00 | 97 | 1018.8 |
| 20260507135058 | 42 | 328 | 4.0 | 8.0 | 0.00 | 0.00 | 0.00 | 97 | 1019.0 |
| 20260507134554 | 42 | 325 | 3.0 | 11.0 | 0.00 | 0.00 | 0.00 | 97 | 1019.1 |
| 20260507134050 | 42 | 236 | 3.0 | 9.0 | 0.00 | 0.00 | 0.00 | 97 | 1018.9 |
| 20260507133546 | 42 | 237 | 5.0 | 9.0 | 0.00 | 0.00 | 0.00 | 97 | 1018.9 |
| 20260507133044 | 42 | 230 | 5.0 | 10.0 | 0.00 | 0.00 | 0.00 | 97 | 1019.1 |
| 20260507132540 | 42 | 336 | 4.0 | 7.0 | 0.00 | 0.00 | 0.00 | 97 | 1019.1 |
| 20260507132037 | 41 | 291 | 4.0 | 9.0 | 0.00 | 0.00 | 0.00 | 97 | 1019.1 |
| 20260507131534 | 41 | 354 | 2.0 | 9.0 | 0.00 | 0.00 | 0.00 | 97 | 1018.9 |
| 20260507131031 | 41 | 315 | 4.0 | 11.0 | 0.00 | 0.00 | 0.00 | 97 | 1019.0 |
| 20260507130528 | 41 | 342 | 3.0 | 8.0 | 0.00 | 0.00 | 0.00 | 97 | 1019.2 |
| 20260507130026 | 41 | 333 | 4.0 | 9.0 | 0.00 | 0.00 | 0.00 | 97 | 1018.9 |
| 20260507125524 | 41 | 312 | 3.0 | 7.0 | 0.00 | 0.00 | 0.00 | 97 | 1018.8 |
| 20260507125021 | 41 | 293 | 3.0 | 7.0 | 0.00 | 0.00 | 0.00 | 97 | 1018.7 |
| 20260507124518 | 41 | 326 | 3.0 | 9.0 | 0.00 | 0.00 | 0.00 | 97 | 1018.7 |
| 20260507124016 | 41 | 326 | 3.0 | 8.0 | 0.00 | 0.00 | 0.00 | 97 | 1018.8 |
| 20260507123514 | 41 | 356 | 3.0 | 7.0 | 0.00 | 0.00 | 0.00 | 97 | 1018.8 |
| 20260507123010 | 41 | 287 | 0.0 | 6.0 | 0.00 | 0.00 | 0.00 | 97 | 1018.7 |
| 20260507122505 | 41 | 251 | 3.0 | 7.0 | 0.00 | 0.00 | 0.00 | 97 | 1018.6 |
| 20260507122001 | 41 | 258 | 6.0 | 11.0 | 0.00 | 0.00 | 0.00 | 96 | 1018.7 |
| 20260507121457 | 41 | 269 | 2.0 | 8.0 | 0.00 | 0.00 | 0.00 | 96 | 1018.7 |
| 20260507120953 | 41 | 325 | 2.0 | 7.0 | 0.00 | 0.00 | 0.00 | 96 | 1018.6 |
| 20260507120449 | 41 | 338 | 4.0 | 7.0 | 0.00 | 0.00 | 0.00 | 96 | 1018.6 |
| 20260507115946 | 41 | 328 | 5.0 | 7.0 | 0.00 | 0.00 | 0.00 | 96 | 1018.8 |
| 20260507115442 | 41 | 336 | 2.0 | 5.0 | 0.00 | 0.00 | 0.00 | 96 | 1018.5 |
| 20260507114938 | 41 | 310 | 4.0 | 8.0 | 0.00 | 0.00 | 0.00 | 96 | 1018.5 |
| 20260507114435 | 41 | 312 | 3.0 | 5.0 | 0.00 | 0.00 | 0.00 | 96 | 1018.4 |
| 20260507113932 | 41 | 267 | 2.0 | 8.0 | 0.00 | 0.00 | 0.00 | 96 | 1018.4 |
| 20260507113429 | 41 | 340 | 4.0 | 7.0 | 0.00 | 0.00 | 0.00 | 96 | 1018.4 |
| 20260507112926 | 41 | 339 | 5.0 | 7.0 | 0.00 | 0.00 | 0.00 | 96 | 1018.6 |
| 20260507112424 | 41 | 303 | 3.0 | 6.0 | 0.00 | 0.00 | 0.00 | 96 | 1018.6 |
| 20260507111921 | 41 | 319 | 3.0 | 6.0 | 0.00 | 0.00 | 0.00 | 96 | 1018.6 |
| 20260507111418 | 41 | 313 | 5.0 | 9.0 | 0.00 | 0.00 | 0.00 | 96 | 1018.2 |
| 20260507110914 | 41 | 346 | 2.0 | 5.0 | 0.00 | 0.00 | 0.00 | 96 | 1018.4 |
| 20260507110410 | 41 | 267 | 2.0 | 7.0 | 0.00 | 0.00 | 0.00 | 95 | 1018.4 |
| 20260507105907 | 41 | 327 | 4.0 | 6.0 | 0.00 | 0.00 | 0.00 | 95 | 1018.4 |
| 20260507105404 | 42 | 5 | 2.0 | 5.0 | 0.00 | 0.00 | 0.00 | 95 | 1018.4 |
| 20260507104901 | 42 | 310 | 3.0 | 5.0 | 0.00 | 0.00 | 0.00 | 95 | 1018.6 |
| 20260507104357 | 42 | 323 | 3.0 | 7.0 | 0.00 | 0.00 | 0.00 | 95 | 1018.5 |
| 20260507103853 | 42 | 332 | 3.0 | 9.0 | 0.00 | 0.00 | 0.00 | 95 | 1018.6 |
| 20260507103350 | 42 | 332 | 5.0 | 6.0 | 0.00 | 0.00 | 0.00 | 95 | 1018.7 |
| 20260507102846 | 42 | 333 | 6.0 | 7.0 | 0.00 | 0.00 | 0.00 | 95 | 1018.5 |
| 20260507102343 | 42 | 336 | 5.0 | 7.0 | 0.00 | 0.00 | 0.00 | 95 | 1018.6 |
| 20260507101839 | 42 | 339 | 3.0 | 6.0 | 0.00 | 0.00 | 0.00 | 95 | 1018.7 |
| 20260507101334 | 42 | 344 | 3.0 | 7.0 | 0.00 | 0.00 | 0.00 | 95 | 1018.6 |
| 20260507100832 | 42 | 349 | 2.0 | 5.0 | 0.00 | 0.00 | 0.00 | 95 | 1018.7 |
| 20260507100329 | 42 | 339 | 3.0 | 6.0 | 0.00 | 0.00 | 0.00 | 95 | 1018.4 |
| 20260507095827 | 42 | 354 | 2.0 | 4.0 | 0.00 | 0.00 | 0.00 | 95 | 1018.6 |
| 20260507095323 | 41 | 0 | 2.0 | 4.0 | 0.00 | 0.00 | 0.00 | 95 | 1018.7 |
| 20260507094821 | 41 | 338 | 2.0 | 4.0 | 0.00 | 0.00 | 0.00 | 95 | 1018.6 |
| 20260507094317 | 41 | 356 | 2.0 | 3.0 | 0.00 | 0.00 | 0.00 | 95 | 1018.6 |
| 20260507093814 | 41 | 338 | 2.0 | 3.0 | 0.00 | 0.00 | 0.00 | 94 | 1018.6 |
| 20260507093313 | 41 | 346 | 3.0 | 4.0 | 0.00 | 0.00 | 0.00 | 94 | 1018.4 |
| 20260507092810 | 41 | 357 | 3.0 | 5.0 | 0.00 | 0.00 | 0.00 | 94 | 1018.7 |
| 20260507092307 | 41 | 337 | 3.0 | 5.0 | 0.00 | 0.00 | 0.00 | 94 | 1018.5 |
| 20260507091803 | 41 | 341 | 3.0 | 4.0 | 0.00 | 0.00 | 0.00 | 94 | 1018.4 |
| 20260507091300 | 41 | 336 | 3.0 | 5.0 | 0.00 | 0.00 | 0.00 | 94 | 1018.4 |
| 20260507090759 | 41 | 337 | 5.0 | 11.0 | 0.00 | 0.00 | 0.00 | 94 | 1018.6 |
| 20260507090257 | 41 | 69 | 0.0 | 0.0 | 0.00 | 0.00 | 0.00 | 93 | 1018.4 |
| 20260507085754 | 42 | 69 | 0.0 | 1.0 | 0.00 | 0.00 | 0.00 | 93 | 1018.1 |
| 20260507085250 | 42 | 80 | 0.0 | 2.0 | 0.00 | 0.00 | 0.00 | 93 | 1018.2 |
| 20260507084748 | 42 | 141 | 0.0 | 2.0 | 0.00 | 0.00 | 0.00 | 93 | 1018.1 |
| 20260507084244 | 42 | 132 | 0.0 | 2.0 | 0.00 | 0.00 | 0.00 | 92 | 1018.1 |
| 20260507083742 | 42 | 84 | 1.0 | 2.0 | 0.00 | 0.00 | 0.00 | 92 | 1018.5 |
| 20260507083238 | 42 | 88 | 1.0 | 3.0 | 0.00 | 0.00 | 0.00 | 92 | 1018.2 |
| 20260507082734 | 42 | 86 | 2.0 | 3.0 | 0.00 | 0.00 | 0.00 | 92 | 1018.1 |
| 20260507082230 | 42 | 71 | 2.0 | 3.0 | 0.00 | 0.00 | 0.00 | 91 | 1018.1 |
| 20260507081727 | 42 | 61 | 4.0 | 4.0 | 0.00 | 0.00 | 0.00 | 91 | 1018.6 |
| 20260507081223 | 42 | 49 | 3.0 | 4.0 | 0.00 | 0.00 | 0.00 | 91 | 1018.2 |
| 20260507080720 | 42 | 43 | 4.0 | 5.0 | 0.00 | 0.00 | 0.00 | 91 | 1018.5 |
| 20260507080216 | 43 | 68 | 3.0 | 6.0 | 0.00 | 0.00 | 0.00 | 91 | 1018.7 |
| 20260507075711 | 43 | 43 | 5.0 | 6.0 | 0.00 | 0.00 | 0.00 | 90 | 1018.6 |
| 20260507075208 | 43 | 78 | 3.0 | 5.0 | 0.00 | 0.00 | 0.00 | 90 | 1018.2 |
| 20260507074704 | 43 | 61 | 6.0 | 9.0 | 0.00 | 0.00 | 0.00 | 90 | 1018.1 |
| 20260507074203 | 43 | 56 | 4.0 | 8.0 | 0.00 | 0.00 | 0.00 | 89 | 1017.8 |
| 20260507073659 | 43 | 109 | 7.0 | 8.0 | 0.00 | 0.00 | 0.00 | 89 | 1018.0 |
| 20260507073155 | 43 | 33 | 4.0 | 7.0 | 0.00 | 0.00 | 0.00 | 88 | 1018.9 |
| 20260507072653 | 43 | 357 | 4.0 | 9.0 | 0.00 | 0.00 | 0.00 | 87 | 1019.4 |
| 20260507072150 | 43 | 10 | 7.0 | 10.0 | 0.00 | 0.00 | 0.00 | 86 | 1018.9 |
| 20260507071648 | 44 | 12 | 9.0 | 11.0 | 0.00 | 0.00 | 0.00 | 84 | 1018.9 |
| 20260507071144 | 44 | 29 | 9.0 | 11.0 | 0.00 | 0.00 | 0.00 | 82 | 1019.4 |
| 20260507070641 | 45 | 344 | 6.0 | 9.0 | 0.00 | 0.00 | 0.00 | 79 | 1019.5 |
| 20260507070138 | 45 | 4 | 3.0 | 10.0 | 0.00 | 0.00 | 0.00 | 77 | 1019.8 |
| 20260507065634 | 45 | 11 | 4.0 | 9.0 | 0.00 | 0.00 | 0.00 | 75 | 1019.7 |
| 20260507065131 | 45 | 11 | 8.0 | 11.0 | 0.00 | 0.00 | 0.00 | 74 | 1019.8 |
| 20260507064629 | 45 | 22 | 7.0 | 14.0 | 0.00 | 0.00 | 0.00 | 72 | 1019.5 |
| 20260507064127 | 46 | 0 | 11.0 | 11.0 | 0.00 | 0.00 | 0.00 | 72 | 1019.6 |
| 20260507063624 | 46 | 20 | 7.0 | 12.0 | 0.00 | 0.00 | 0.00 | 71 | 1019.8 |
| 20260507063121 | 46 | 0 | 11.0 | 11.0 | 0.00 | 0.00 | 0.00 | 70 | 1019.8 |
| 20260507062618 | 46 | 43 | 6.0 | 10.0 | 0.00 | 0.00 | 0.00 | 69 | 1019.1 |
| 20260507062116 | 46 | 37 | 9.0 | 12.0 | 0.00 | 0.00 | 0.00 | 69 | 1019.4 |
| 20260507061613 | 46 | 28 | 10.0 | 14.0 | 0.00 | 0.00 | 0.00 | 68 | 1019.5 |
| 20260507061111 | 46 | 24 | 13.0 | 14.0 | 0.00 | 0.00 | 0.00 | 68 | 1019.0 |
| 20260507060609 | 46 | 33 | 13.0 | 15.0 | 0.00 | 0.00 | 0.00 | 68 | 1019.1 |
| 20260507060105 | 46 | 30 | 11.0 | 16.0 | 0.00 | 0.00 | 0.00 | 67 | 1018.8 |
| 20260507055601 | 46 | 31 | 8.0 | 19.0 | 0.00 | 0.00 | 0.00 | 67 | 1018.6 |
| 20260507055057 | 46 | 32 | 9.0 | 15.0 | 0.00 | 0.00 | 0.00 | 67 | 1018.6 |
| 20260507054553 | 46 | 42 | 14.0 | 19.0 | 0.00 | 0.00 | 0.00 | 67 | 1018.9 |
| 20260507054050 | 46 | 27 | 10.0 | 21.0 | 0.00 | 0.00 | 0.00 | 66 | 1018.8 |
| 20260507053548 | 46 | 31 | 13.0 | 20.0 | 0.00 | 0.00 | 0.00 | 66 | 1018.9 |
| 20260507053047 | 47 | 16 | 13.0 | 20.0 | 0.00 | 0.00 | 0.00 | 65 | 1019.0 |
| 20260507052544 | 47 | 21 | 7.0 | 17.0 | 0.00 | 0.00 | 0.00 | 65 | 1018.7 |
| 20260507052040 | 46 | 30 | 11.0 | 15.0 | 0.00 | 0.00 | 0.00 | 65 | 1018.2 |
| 20260507051538 | 47 | 36 | 14.0 | 21.0 | 0.00 | 0.00 | 0.00 | 65 | 1018.5 |
| 20260507051035 | 47 | 42 | 17.0 | 21.0 | 0.00 | 0.00 | 0.00 | 65 | 1018.6 |
| 20260507050531 | 47 | 26 | 18.0 | 23.0 | 0.00 | 0.00 | 0.00 | 65 | 1018.4 |
| 20260507050028 | 46 | 33 | 16.0 | 20.0 | 0.00 | 0.00 | 0.00 | 65 | 1018.4 |
| 20260507045524 | 46 | 21 | 15.0 | 22.0 | 0.00 | 0.00 | 0.00 | 65 | 1018.7 |
| 20260507045022 | 46 | 16 | 12.0 | 20.0 | 0.00 | 0.00 | 0.00 | 65 | 1018.9 |
| 20260507044518 | 47 | 17 | 12.0 | 25.0 | 0.00 | 0.00 | 0.00 | 64 | 1018.7 |
| 20260507044015 | 47 | 9 | 25.0 | 26.0 | 0.00 | 0.00 | 0.00 | 63 | 1019.0 |
| 20260507043511 | 48 | 19 | 17.0 | 20.0 | 0.00 | 0.00 | 0.00 | 61 | 1018.8 |
| 20260507043009 | 48 | 14 | 17.0 | 24.0 | 0.00 | 0.00 | 0.00 | 61 | 1018.4 |
| 20260507042504 | 48 | 18 | 17.0 | 25.0 | 0.00 | 0.00 | 0.00 | 60 | 1018.4 |
| 20260507042000 | 48 | 22 | 23.0 | 27.0 | 0.00 | 0.00 | 0.00 | 60 | 1018.5 |
| 20260507041457 | 48 | 17 | 18.0 | 28.0 | 0.00 | 0.00 | 0.00 | 60 | 1018.5 |
| 20260507040954 | 48 | 23 | 23.0 | 27.0 | 0.00 | 0.00 | 0.00 | 60 | 1018.2 |
| 20260507040450 | 48 | 23 | 17.0 | 25.0 | 0.00 | 0.00 | 0.00 | 60 | 1018.2 |
| 20260507035946 | 48 | 11 | 15.0 | 22.0 | 0.00 | 0.00 | 0.00 | 59 | 1018.2 |
| 20260507035443 | 49 | 16 | 20.0 | 23.0 | 0.00 | 0.00 | 0.00 | 59 | 1018.4 |
| 20260507034939 | 49 | 23 | 22.0 | 24.0 | 0.00 | 0.00 | 0.00 | 59 | 1018.0 |
| 20260507034436 | 49 | 20 | 13.0 | 20.0 | 0.00 | 0.00 | 0.00 | 58 | 1018.2 |
| 20260507033935 | 49 | 15 | 19.0 | 25.0 | 0.00 | 0.00 | 0.00 | 58 | 1018.1 |